Terug naar catalogus

FENGYUN 1C DEB

ActiefSSO
NORAD 38496·DEBRIS·🇨🇳 China

Gelanceerd May 10, 1999 vanaf Taiyuan Satellite Launch Center

Loading…

Volgende Passages (komende 24 uur)

TLE

VersSource: Space-Track

Epoch: Sep 14, 2026, 07:07 UTC

1 38496U 99025ESF 26257.29689876  .00000854  00000-0  48901-3 0  9994
2 38496  98.7627 265.0678 0076031 306.6787  52.7413 14.10710383849055

Volg FENGYUN 1C DEB in realtime met AllMySat

Download on the App Store